PSLV R/B, 40058

Orbit data source: Space-Track

PSLV R/B, 40058 is space debris in SSO originally from a launch on Mon, 30 Jun 2014 UTC launched from the Sirharikota (SRI). Debris objects in space refer to the collection of defunct objects orbiting the Earth. Examples of debris include non-operational satellites, rocket bodies, and fragments generated from explosions, collisions, or faulty payload assembly.

Loading next visibility...
Identifier
40058, 2014-034F
Orbit
SSO
Country
Flag of ININ / IND
Related business
Manufacturer
VSSC/LPSC
Mission
Spacecraft
Bus & Motor
PS-4, Unknown motor
Mass
920 kg wet, 920 kg dry
Launch date (UTC)
2014-06-30 (12 years ago)
Launch vehicle
Unknown
Launch site
Sirharikota (SRI)
Object type
Payload
Rocket body
Debris
Shape & HBR
Cyl + Cyl + 2 Nozzle, 1.5 m
Radar Cross Section
3.727 m², Large (>1 m²)

Expand to show TLE details & history
Last TLE update: 2 days ago

TLE from 2 days ago
0 PSLV R/B
1 40058U 14034F   26171.36064263  .00000476  00000-0  63676-4 0  9995
2 40058  98.2862  33.1745 0019472 327.8343  32.1681 14.84316268646549
Epoch: 2026-06-20T08:39Z
TLE epoch observation values (Epoch: 2026-06-20T08:39:19.523Z)
Latitude
Longitude
-5.23322°
Altitude
607.226 km
Speed
7.562 km/s
True Right ascension
02h 12m 41s
True Declination
0° 00' 00"
Sunlit
Object was in daylight at epoch
Visualization orbit readout
Latitude
Unknown
Longitude
Unknown
Altitude
Unknown
Speed
Unknown
Apparent Right ascension
Unknown
Apparent Declination
Unknown
Sunlit
N/A
Visualization observer readout
Local Sidereal Time
21:41:15
Azimuth
Unknown
Elevation
Unknown
Doppler factor
Unknown
Orbital elements
Apogee altitude
626.398 km
Perigee altitude
599.173 km
Semi-major axis
6,990.923 km
Eccentricity
0.00195
Inclination
98.2862°
RAAN
33.1745°
Arg. of periapsis
327.8343°
True anomaly
32.28714°
Mean anomaly
32.1681°
Eccentric anomaly
32.2276°
Mean motion
3.71314 °/min
Orbital period
96.95 mins
BSTAR
0.000063676
Loading maneuver chart data...
Computing Atmospheric mass density...
Loading historical data...
Loading historical data...
Loading historical data...
Loading historical data...
Loading historical data...
Loading historical data...
Loading historical data...
Other satellites on launch #34 in the year 2014 (2014-06-30 UTC)

Documentation

Showing up to 5 results
|